Flag for Canada Weather past 2 weeks in Stephenville, Newfoundland and Labrador, Canada

Now
45 °F

Passing clouds.


Feels Like: 41 °F
Forecast: 36 / 44 °F
Wind: 7 mph from Northeast

Location: Stephenville

Current Time: May 5, 2015 at 5:42:12 AM

Latest Report: May 5, 2015 at 4:30 AM


Visibility: 15 mi

Pressure: 29.83 "Hg

Humidity: 71%

Dew point: 36 °F

Location of StephenvilleLocation

Historic Weather in Stephenville — Graph

°F

Stephenville temperature yesterday

Maximum temperature yesterday: 46 °F (at 7:30 PM)
Minimum temperature yesterday: 28 °F (at 2:30 AM)
Average temperature yesterday: 39 °F

Past Weeks' High & Low Weather Summary

 TemperatureHumidityPressure
High50 °F (Apr 26, 4:30 PM)100% (Apr 20, 4:30 AM)30.44 "Hg (Apr 20, 4:30 AM)
Low25 °F (Apr 20, 4:30 AM)36% (Apr 22, 12:30 PM)29.22 "Hg (Apr 28, 8:30 AM)
Average40 °F72%29.85 "Hg
* Reported Apr 20 4:30 AM — May 5 4:30 AM, Stephenville, Weather by CustomWeather, © 2015

Note: Actual official high and low records may vary slightly from our data, if they occured in-between our weather recording intervals... More about our weather records

Advertising

Stephenville weather history for previous 24 hours

 ConditionsComfort  
Time TempWeatherWind HumidityBarometerVisibility
4:30 AM
Tue, May 5
45 °FPassing clouds.7 mph71%29.83 "Hg15 mi
3:30 AM43 °FPassing clouds.5 mph71%29.87 "Hg15 mi
2:30 AM45 °FPassing clouds.7 mph66%29.90 "Hg15 mi
1:30 AM43 °FClear.8 mph66%29.92 "Hg15 mi
12:30 AM45 °FClear.7 mph61%29.96 "Hg15 mi
11:30 PM
Mon, May 4
45 °FPassing clouds.6 mph61%29.98 "Hg15 mi
10:30 PM46 °FPassing clouds.5 mph62%30.01 "Hg15 mi
9:30 PM46 °FPassing clouds.6 mph57%30.02 "Hg15 mi
8:30 PM46 °FScattered clouds.6 mph62%30.03 "Hg15 mi
7:30 PM46 °FScattered clouds.No wind57%30.04 "Hg15 mi
6:30 PM45 °FPassing clouds.No wind66%30.06 "Hg15 mi
5:30 PM45 °FPassing clouds.5 mph71%30.08 "Hg15 mi
4:30 PM45 °FPassing clouds.8 mph71%30.09 "Hg15 mi
3:30 PM45 °FScattered clouds.5 mph66%30.10 "Hg15 mi
2:30 PM45 °FPartly sunny.6 mph66%30.13 "Hg15 mi
1:30 PM45 °FScattered clouds.10 mph66%30.15 "Hg15 mi
12:30 PM43 °FPartly sunny.9 mph71%30.15 "Hg15 mi
11:30 AM43 °FPassing clouds.7 mph66%30.15 "Hg15 mi
10:30 AM41 °FPassing clouds.3 mph70%30.16 "Hg15 mi
9:30 AM39 °FSunny.No wind75%30.17 "Hg15 mi
8:30 AM36 °FBroken clouds.2 mph87%30.17 "Hg15 mi
7:30 AM34 °FMostly cloudy.3 mph93%30.16 "Hg15 mi
6:30 AM32 °FIce fog.2 mph93%30.15 "Hg5 mi
5:30 AM30 °FPartly cloudy.3 mph100%30.15 "Hg15 mi
Weather by CustomWeather, © 2015

See weather overviewHow to use our weather pages